Flag for Germany Weather past 2 weeks in Stuttgart, Baden-Württemberg, Germany

Now
66 °F

Clear.


Feels Like: 66 °F
Forecast: 61 / 74 °F
Wind: 1 mph from North

Location: Stuttgart-Echterdingen

Current Time: Jul 7, 2015 at 3:26:52 AM

Latest Report: Jul 7, 2015 at 2:50 AM


Visibility: 10 mi

Pressure: 30.07 "Hg

Humidity: 73%

Dew point: 57 °F

Location of StuttgartLocation

Historic Weather in Stuttgart — Graph

°F

Stuttgart temperature yesterday

Maximum temperature yesterday: 84 °F (at 3:50 PM)
Minimum temperature yesterday: 68 °F (at 5:20 AM)
Average temperature yesterday: 76 °F

Past Weeks' High & Low Weather Summary

 TemperatureHumidityPressure
High99 °F (Jul 5, 4:20 PM)100% (Jun 22, 3:20 AM)30.27 "Hg (Jun 22, 3:20 AM)
Low46 °F (Jun 24, 4:50 AM)22% (Jul 4, 6:20 PM)29.74 "Hg (Jun 22, 8:50 PM)
Average70 °F65%30.12 "Hg
* Reported Jun 22 2:20 AM — Jul 7 2:20 AM, Stuttgart, Weather by CustomWeather, © 2015

Note: Actual official high and low records may vary slightly from our data, if they occured in-between our weather recording intervals... More about our weather records

Advertising

Stuttgart weather history for previous 24 hours

 ConditionsComfort  
Time TempWeatherWind HumidityBarometerVisibility
2:20 AM
Tue, Jul 7
66 °FClear.2 mph73%30.07 "Hg10 mi
1:50 AM68 °FClear.No wind69%30.07 "Hg10 mi
1:20 AM66 °FPassing clouds.3 mph73%30.07 "HgN/A
12:50 AM68 °FClear.5 mph69%30.07 "Hg10 mi
12:20 AM70 °FClear.3 mph64%30.09 "Hg10 mi
11:50 PM
Mon, Jul 6
72 °FClear.2 mph57%30.09 "Hg10 mi
11:20 PM72 °FClear.3 mph61%30.09 "Hg10 mi
10:50 PM73 °FClear.5 mph57%30.09 "Hg10 mi
10:20 PM75 °FSunny.2 mph54%30.09 "Hg10 mi
9:50 PM77 °FSunny.3 mph51%30.09 "Hg10 mi
9:20 PM79 °FSunny.3 mph48%30.09 "Hg10 mi
8:50 PM79 °FPassing clouds.5 mph48%30.09 "HgN/A
8:20 PM81 °FSunny.7 mph45%30.09 "Hg10 mi
7:50 PM82 °FPassing clouds.6 mph42%30.09 "HgN/A
7:20 PM82 °FPassing clouds.7 mph42%30.09 "HgN/A
6:50 PM82 °FPassing clouds.7 mph42%30.09 "HgN/A
6:20 PM82 °FPassing clouds.7 mph42%30.09 "HgN/A
5:50 PM84 °FPassing clouds.8 mph40%30.09 "HgN/A
5:20 PM84 °FPassing clouds.7 mph40%30.09 "HgN/A
4:50 PM84 °FPassing clouds.7 mph43%30.12 "HgN/A
4:20 PM84 °FPassing clouds.8 mph40%30.12 "HgN/A
3:50 PM84 °FPassing clouds.6 mph40%30.12 "HgN/A
3:20 PM82 °FSunny.3 mph42%30.15 "Hg10 mi
2:50 PM82 °FSunny.6 mph42%30.15 "Hg10 mi
2:20 PM81 °FScattered clouds.5 mph45%30.15 "HgN/A
1:50 PM81 °FScattered clouds.7 mph48%30.15 "HgN/A
1:20 PM81 °FScattered clouds.5 mph45%30.18 "HgN/A
12:50 PM79 °FScattered clouds.5 mph51%30.18 "HgN/A
12:20 PM77 °FScattered clouds.3 mph51%30.18 "HgN/A
11:50 AM77 °FScattered clouds.5 mph54%30.21 "HgN/A
11:20 AM75 °FPassing clouds.7 mph54%30.21 "HgN/A
10:50 AM73 °FPassing clouds.6 mph57%30.21 "HgN/A
10:20 AM73 °FPassing clouds.3 mph53%30.21 "HgN/A
9:50 AM70 °FScattered clouds.5 mph57%30.24 "HgN/A
9:20 AM70 °FPartly sunny.5 mph60%30.24 "HgN/A
8:50 AM68 °FPartly sunny.5 mph64%30.21 "HgN/A
8:20 AM68 °FBroken clouds.6 mph64%30.21 "HgN/A
7:50 AM68 °FBroken clouds.6 mph64%30.21 "HgN/A
7:20 AM68 °FBroken clouds.8 mph64%30.21 "HgN/A
6:50 AM68 °FScattered clouds.9 mph69%30.21 "HgN/A
6:20 AM68 °FPassing clouds.15 mph69%30.18 "HgN/A
5:20 AM68 °FPassing clouds.10 mph78%30.18 "HgN/A
4:50 AM70 °FPassing clouds.12 mph73%30.15 "HgN/A
4:20 AM72 °FPassing clouds.12 mph73%30.15 "HgN/A
3:50 AM72 °FPartly cloudy.15 mph73%30.12 "HgN/A
3:20 AM73 °FPassing clouds.14 mph74%30.12 "HgN/A
Weather by CustomWeather, © 2015

See weather overviewHow to use our weather pages